Back to Previous

Regional Weather Roundup

753 
ASUS44 KLZK 312105
RWRLZK

WEATHER ROUNDUP FOR ARKANSAS
NATIONAL WEATHER SERVICE LITTLE ROCK AR
400 PM CDT MON AUG 31 2015

NOTE: "FAIR" INDICATES FEW OR NO CLOUDS BELOW 12,000 FEET WITH NO
SIGNIFICANT WEATHER AND/OR OBSTRUCTIONS TO VISIBILITY.

ARZ001-003-010-029-312200-
NORTHWEST ARKANSAS
  
CITY           SKY/WX    TMP DP  RH WIND       PRES   REMARKS
FAYETTEVILLE   FAIR      86  68  54 VRB7      30.03F HX  89           
FORT SMITH     FAIR      91  66  43 E6        29.98F HX  93           
BENTONVILLE    FAIR      90  66  45 SW7       30.04F HX  92           
ROGERS           N/A     89  68  49 SW10      30.04F HX  93           
SILOAM SPGS    FAIR      88  68  51 S10       30.01F HX  91           
HIGHFILL       FAIR      87  69  54 S9        30.03F HX  91           
SPRINGDALE     MOSUNNY   88  68  51 SW7       30.05F HX  91           
$$

ARZ004-005-016-312200-
NORTH CENTRAL ARKANSAS
  
CITY           SKY/WX    TMP DP  RH WIND       PRES   REMARKS
BATESVILLE     FAIR      84  73  70 SE7       30.04S THUNDER HX  91   
FLIPPIN        FAIR      90  66  45 E6        30.01F HX  92           
MTN HOME       FAIR      89  67  47 SE7       30.02F HX  92           
$$

ARZ040-041-312200-
WEST CENTRAL ARKANSAS
  
CITY           SKY/WX    TMP DP  RH WIND       PRES   REMARKS
MENA           FAIR      95  64  36 S6        30.02F HX  97           
MOUNT IDA      FAIR      88  67  49 CALM      30.00F HX  91           
$$

ARZ009-017-025-026-028-312200-
NORTHEAST ARKANSAS
  
CITY           SKY/WX    TMP DP  RH WIND       PRES   REMARKS
JONESBORO      FAIR      88  68  51 SE9       30.03F HX  91           
NEWPORT        FAIR      90  73  57 SE8       30.04F HX  98           
WALNUT RIDGE   FAIR      88  70  55 SE10      30.02F HX  92           
BLYTHEVILLE    FAIR      89  71  55 S6        30.04F HX  95           
$$

ARZ022-023-033-042-044-312200-
CENTRAL ARKANSAS
  
CITY           SKY/WX    TMP DP  RH WIND       PRES   REMARKS
LITTLE ROCK    FAIR      92  64  39 E7        30.01S HX  93           
N LITTLE ROCK  MOSUNNY   90  67  45 SE8       30.01S HX  93           
JACKSONVILLE   FAIR      93  65  40 VRB6      30.00F HX  95           
SEARCY         FAIR      94  70  45 VRB6      30.03F HX 100           
HOT SPRINGS    FAIR      88  68  51 W3        30.01F HX  91           
RUSSELLVILLE   FAIR      84  64  50 VRB6      30.00F HX  85           
$$

ARZ036-312200-
EAST ARKANSAS
  
CITY           SKY/WX    TMP DP  RH WIND       PRES   REMARKS
WEST MEMPHIS   CLOUDY    85  70  60 SE7       30.03F HX  89           
$$

ARZ050-053-066-070-073-312200-
SOUTHWEST ARKANSAS
  
CITY           SKY/WX    TMP DP  RH WIND       PRES   REMARKS
ARKADELPHIA    FAIR      97  66  35 VRB7      29.99F HX 100           
CAMDEN         FAIR      95  64  36 SW6       29.99F HX  97           
TEXARKANA      FAIR      92  65  40 SE13      30.01F HX  94           
EL DORADO      FAIR      94  61  33 SE12      30.00F HX  94           
DE QUEEN       FAIR      92  66  42 E6        29.97F HX  94           
$$

ARZ056-057-069-312200-
SOUTHEAST ARKANSAS
  
CITY           SKY/WX    TMP DP  RH WIND       PRES   REMARKS
PINE BLUFF     PTSUNNY   91  66  43 VRB5      30.00F HX  93           
STUTTGART      FAIR      91  64  40 SE6       30.01F HX  93           
MONTICELLO     FAIR      92  68  45 E3        29.99F HX  96           

$$




USA.gov is the U.S. government's official web portal to all federal, state and local government web resources and services.